Tracking 25648 objects as of 17-May-2022
HD Live streaming from Space Station
objects crossing your sky now

FLOCK 4X 32

Track FLOCK 4X 32 now!
10-day predictions


NORAD ID: 51024
Int'l Code: 2022-002AS
Perigee: 519.5 km
Apogee: 538.5 km
Inclination: 97.5 °
Period: 95.1 minutes
Semi major axis: 6899 km
RCS: Unknown
Launch date: January 13, 2022
Source: United States (US)
Launch site: AIR FORCE EASTERN TEST RANGE (AFETR)
aabbcc
Your satellite tracking list
Your tracking list is empty




NASA's NSSDC Master Catalog

Two Line Element Set (TLE):
1 51024U 22002AS  22136.44801071  .00006569  00000-0  35735-3 0  9999
2 51024  97.4907 204.2128 0013748 169.0107 191.1428 15.14717240 18586
Source of the keplerian elements: AFSPC